Wind_Speed
18 18 18 18 18 18 18 19 18 17 16 15 12 12 11 13 14 14 15 13 10 21 6 10 14 19 20 17 19 19 13 15 23 4 10 19 8 31 33 12 8 14 20 21 23
18 18 19 19 19 19 19 19 19 19 18 15 13 11 10 12 13 23 25 24 14 13 14 17 15 16 13 18 15 17 13 23 12 2 18 3 14 32 6 12 14 18 25 25 22
19 19 19 20 20 20 20 20 20 20 19 15 13 9 9 8 11 13 15 31 23 15 17 20 16 16 17 16 19 18 17 21 15 3 11 17 16 7 26 16 10 21 22 19 20
20 20 20 21 21 22 22 21 22 21 18 15 12 8 7 3 5 6 7 17 17 13 15 20 16 16 16 18 20 20 20 20 21 8 7 14 13 13 21 20 24 32 29 17 15
23 23 23 22 22 23 24 22 23 20 17 14 10 7 4 8 16 8 8 11 13 15 18 16 14 14 17 18 20 19 20 20 16 9 8 16 14 11 27 22 30 34 23 16 13
24 24 25 24 23 24 24 24 23 19 15 11 8 7 5 14 5 9 10 14 14 19 19 20 13 14 16 19 18 16 18 17 22 12 11 14 15 12 20 18 21 31 26 17 16
25 25 26 26 25 25 24 25 21 17 11 7 7 6 12 18 3 5 11 14 16 19 15 17 17 16 10 15 16 14 14 13 19 12 18 13 14 16 14 30 37 13 12 17 16
26 27 27 27 27 26 26 22 19 11 6 4 6 6 8 14 19 12 12 15 16 17 18 14 17 11 16 16 12 13 13 15 17 18 17 14 16 18 14 7 13 14 14 14 17
26 27 28 27 27 28 28 19 12 6 4 5 5 9 12 4 14 14 16 17 18 15 14 12 7 13 15 14 14 14 13 19 20 19 11 11 16 21 16 11 9 7 14 14 12
26 27 28 29 26 28 24 15 10 4 4 5 15 8 17 14 16 19 18 18 13 12 12 9 7 13 15 14 13 16 18 13 15 13 11 15 14 19 3 10 13 12 9 10 16
28 28 28 28 27 22 22 6 4 5 14 14 10 12 3 19 10 19 21 18 14 13 15 15 12 15 18 17 20 21 15 12 15 12 12 14 10 14 12 11 8 11 12 10 19
29 29 29 28 26 11 13 9 7 9 12 18 24 22 22 7 9 13 22 17 16 17 17 15 17 19 18 17 17 17 11 16 15 6 8 8 12 14 12 10 10 8 13 15 19
28 30 29 29 16 7 11 6 10 14 8 15 24 23 22 16 15 16 20 21 18 19 19 19 20 21 19 17 10 11 13 15 16 13 9 7 13 17 19 13 3 3 10 14 18
27 28 27 33 6 15 8 8 11 11 6 9 14 21 25 18 19 19 26 21 17 20 21 20 22 17 15 17 10 14 16 15 16 15 12 16 13 16 19 14 10 6 9 11 11
28 26 26 18 17 10 11 14 13 9 6 9 11 3 18 25 4 24 24 20 24 20 14 21 23 20 14 15 12 16 15 13 16 15 15 19 11 12 11 16 13 13 9 6 10
28 25 26 11 13 17 15 15 11 6 9 8 9 10 18 23 24 13 22 22 20 23 20 21 20 17 20 16 16 15 11 13 8 11 13 17 16 16 11 14 15 13 10 8 10
30 24 23 16 8 12 13 9 6 8 7 8 12 12 18 19 23 22 21 24 21 20 22 21 22 19 12 12 15 15 10 8 11 11 13 17 17 14 12 22 21 18 14 12 11
32 25 21 17 11 10 10 7 11 11 22 10 4 10 17 18 21 24 21 22 25 24 15 19 18 22 14 18 17 17 15 11 11 11 8 14 15 9 15 18 20 18 16 15 14
31 18 18 16 13 11 7 12 8 15 15 14 10 14 16 18 16 24 22 22 24 25 22 17 22 17 25 14 20 17 15 19 17 17 13 4 9 11 14 14 18 19 16 16 14
23 16 20 17 14 12 9 21 16 23 24 14 14 14 17 18 21 19 25 22 23 25 22 21 19 17 18 21 19 20 16 14 10 12 14 12 14 10 18 16 16 17 16 15 14
10 5 5 16 10 8 13 18 22 27 28 22 15 19 21 21 19 21 22 24 23 25 23 22 17 16 16 14 19 13 16 15 10 10 10 10 3 11 12 11 14 16 18 15 15
11 5 12 11 7 8 16 21 20 25 24 22 21 20 21 23 24 21 24 22 22 22 25 21 10 12 21 19 19 19 19 19 9 13 10 9 2 1 14 15 16 15 20 19 16
4 9 10 10 8 12 19 24 25 25 25 27 23 19 19 22 21 19 22 18 19 18 20 16 14 11 17 15 13 15 21 14 11 10 11 9 9 6 2 10 15 13 20 17 16
5 5 7 9 12 18 20 21 22 24 26 27 26 22 21 22 21 21 22 19 17 15 7 7 10 15 12 17 15 19 18 17 14 11 13 14 14 8 9 2 7 8 21 18 14
4 6 9 5 11 11 15 18 23 22 22 22 24 26 21 21 23 23 21 21 20 5 4 4 11 15 20 23 18 17 20 20 19 14 12 11 7 8 5 9 14 22 13 16 13
5 6 8 11 15 17 14 18 22 25 27 22 25 22 23 22 22 21 22 20 15 13 14 10 10 14 19 21 21 21 19 23 20 20 19 16 14 11 14 14 17 22 10 16 13
9 18 5 8 13 12 14 19 18 21 26 26 25 22 25 26 22 20 21 15 19 3 13 15 12 14 19 21 21 21 21 15 15 19 16 15 14 11 12 15 9 3 3 13 15
Wind_Direction
7 4 1 359 356 348 345 341 337 333 332 326 313 301 294 288 285 273 248 231 250 233 278 247 230 244 247 258 264 267 271 269 278 127 183 231 227 304 162 153 164 80 105 115 136
3 359 355 352 350 345 342 338 332 329 326 320 308 298 294 293 288 266 246 251 251 226 236 234 226 234 246 248 245 248 254 260 336 252 142 150 192 224 150 138 138 107 113 125 144
357 354 351 348 345 342 337 333 330 325 322 315 303 293 290 308 280 250 234 229 232 239 228 230 239 229 246 252 253 244 248 272 288 329 342 195 215 100 272 40 21 325 137 144 149
351 349 347 345 342 338 334 331 327 322 317 309 295 283 282 282 284 95 159 193 217 218 222 249 242 253 246 252 252 257 256 267 277 63 302 289 310 167 154 116 103 279 264 153 159
349 347 344 342 339 335 333 329 324 319 314 303 283 267 274 232 254 187 167 186 194 194 214 234 231 237 246 244 250 246 264 266 276 284 273 295 299 302 139 135 174 218 255 150 176
346 344 342 339 336 333 330 327 321 315 309 294 262 245 243 258 205 153 169 173 190 192 217 238 236 240 253 252 265 250 244 267 269 271 243 259 276 280 99 35 282 200 224 164 173
344 342 340 338 335 331 327 325 320 313 307 279 238 222 260 244 314 201 189 195 196 203 229 238 252 262 255 275 271 269 271 278 250 259 259 258 258 263 161 188 218 157 165 163 175
343 341 339 337 333 329 325 323 318 309 298 237 215 223 261 237 252 240 203 200 207 212 234 258 244 282 267 275 274 262 255 259 245 230 251 245 259 247 228 175 199 196 179 184 182
341 340 339 337 333 329 322 319 309 298 261 202 203 218 254 214 221 206 209 203 206 214 229 262 239 245 256 251 262 234 243 236 257 200 221 205 257 265 229 208 210 241 222 189 191
340 338 338 337 333 329 318 312 289 261 242 239 261 249 242 224 209 216 211 213 203 213 222 221 236 238 239 241 238 234 217 252 251 169 192 220 232 264 250 186 215 219 267 231 189
340 337 337 337 333 329 322 334 220 201 231 233 202 223 112 225 179 198 203 209 195 210 215 204 221 226 233 231 250 271 303 268 250 180 178 243 229 256 254 216 243 244 239 356 40
342 338 337 335 330 317 305 280 40 325 291 257 248 251 256 220 207 220 198 201 200 210 213 227 225 239 242 250 245 258 279 283 294 192 165 237 274 268 251 270 191 239 46 46 80
341 340 339 334 325 298 310 332 327 326 272 270 231 230 229 214 225 205 204 205 207 216 215 227 227 217 246 250 237 267 266 261 275 281 172 213 263 274 262 237 179 56 37 55 113
338 339 341 337 315 326 308 358 321 337 279 251 201 215 215 206 228 233 203 209 223 221 226 232 242 259 210 243 232 241 245 256 268 264 265 200 247 238 239 201 205 120 68 38 87
336 336 334 346 300 305 344 324 320 286 281 102 174 153 198 201 203 207 213 208 223 220 221 230 232 239 209 248 228 256 260 284 232 262 271 271 271 259 272 164 165 101 82 61 65
331 330 330 348 274 274 296 313 293 235 237 166 150 199 203 196 220 209 209 205 229 239 239 244 246 223 246 218 242 249 242 265 286 255 251 250 266 264 177 178 123 111 118 124 97
328 319 308 282 241 334 322 289 238 235 239 191 189 205 215 200 212 237 193 202 213 220 235 234 240 248 215 239 228 227 224 241 233 233 242 238 235 253 108 130 135 141 144 134 125
323 315 293 247 266 285 284 242 241 261 233 306 257 223 208 214 207 224 199 215 210 225 228 229 226 234 181 226 232 211 225 238 235 223 253 253 233 208 125 114 133 143 146 141 146
327 316 271 251 234 231 239 224 229 232 287 304 242 248 230 221 213 216 219 210 219 219 227 238 232 224 223 201 235 197 218 245 267 286 288 235 76 115 123 138 138 142 152 150 137
322 301 264 230 193 206 228 235 248 249 283 302 280 274 243 229 220 211 222 217 229 219 223 246 264 248 221 203 220 250 214 221 238 259 275 254 185 223 162 156 156 157 155 144 138
290 266 103 148 162 219 234 237 246 259 275 276 255 270 275 282 231 226 227 225 211 225 219 230 253 259 218 197 211 216 243 254 237 236 237 273 154 93 136 179 170 167 151 151 154
282 258 137 175 220 234 240 250 258 269 273 254 268 254 277 289 291 267 223 238 222 210 227 212 237 238 257 213 212 236 218 232 243 239 260 278 187 262 188 188 178 191 154 152 154
266 258 232 203 246 248 256 258 249 254 253 263 246 243 261 273 281 280 278 232 237 207 217 207 219 229 256 261 213 219 245 223 232 267 270 264 270 134 95 179 176 193 145 144 144
285 271 211 202 250 268 280 281 273 254 245 255 257 251 239 254 259 268 273 270 255 201 216 240 209 217 238 243 209 213 229 239 220 212 230 244 269 177 177 102 26 238 132 138 149
244 255 287 279 223 244 254 262 273 267 258 244 250 250 245 242 253 249 250 261 253 144 176 180 225 214 226 255 268 208 222 229 235 235 248 254 257 140 82 73 55 320 109 139 158
297 334 331 298 292 281 275 271 267 262 271 251 245 245 252 247 236 248 242 249 270 182 195 214 227 227 236 236 248 260 235 212 222 230 222 229 254 163 143 145 184 221 163 154 152
288 310 279 277 273 271 263 264 279 313 272 274 276 228 245 247 244 255 259 279 304 181 245 204 200 212 233 237 251 249 248 243 220 224 221 221 103 57 163 190 184 82 8 148 151
Height
833 831 829 826 824 821 818 815 812 809 806 804 802 801 799 798 796 795 790 783 782 783 783 783 782 780 778 773 767 759 783 784 760 765 781 767 751 749 743 755 742 742 750 761 771
834 831 829 826 823 820 817 814 811 808 805 803 801 800 798 797 795 789 778 779 780 781 783 781 775 775 774 770 764 768 780 768 745 745 766 760 764 791 741 751 746 749 754 764 770
835 832 829 826 823 819 816 813 809 806 803 801 800 798 797 796 792 770 767 773 777 779 781 777 772 769 773 765 762 760 773 751 744 734 731 745 737 755 781 797 792 791 756 763 766
835 832 828 825 821 818 814 811 807 804 801 799 798 796 796 798 791 765 767 771 774 777 780 776 769 771 773 774 756 766 750 746 740 735 739 741 726 748 771 783 777 790 774 762 763
835 831 827 823 819 816 812 808 805 801 798 797 796 796 796 791 774 768 768 770 773 776 776 771 770 770 775 765 755 759 751 742 735 734 740 734 737 737 771 745 751 769 768 757 761
833 830 826 822 817 813 809 805 802 798 796 795 795 795 795 791 764 765 768 769 771 774 772 767 763 758 761 758 756 746 746 746 738 737 736 746 742 738 772 768 764 761 762 751 755
833 829 824 820 815 811 806 802 798 795 793 793 793 794 789 774 763 764 766 769 770 771 767 764 760 758 757 762 743 744 758 749 745 740 743 735 753 750 738 747 761 737 741 743 749
832 827 823 818 813 808 803 799 795 793 792 792 792 795 781 765 764 763 764 766 767 767 765 761 760 758 759 749 750 760 758 776 745 740 739 744 771 741 727 734 747 735 736 739 741
830 826 821 816 811 805 799 796 793 792 791 791 792 791 775 758 759 759 760 761 763 763 764 761 760 765 762 771 773 764 783 769 753 730 739 748 765 735 721 728 734 733 735 734 739
829 824 819 814 808 803 796 792 790 790 791 792 788 788 761 755 753 757 757 758 759 762 765 767 769 776 771 771 795 773 768 758 754 739 740 751 755 737 720 726 731 731 731 730 735
828 823 818 812 806 802 794 791 789 789 787 772 763 760 745 750 745 752 755 757 757 763 778 767 781 783 769 759 753 749 754 752 738 724 742 750 749 741 727 727 732 732 734 737 747
828 822 817 810 804 800 797 791 788 790 783 764 759 754 748 746 755 751 751 759 761 775 767 771 782 760 749 747 751 753 761 759 737 724 739 748 752 736 727 728 727 732 740 750 768
827 822 816 808 802 800 796 791 791 787 784 752 742 744 745 746 751 749 747 751 759 770 765 773 759 746 752 752 760 763 769 764 760 738 736 752 766 752 731 725 726 730 739 750 769
826 822 817 808 806 800 794 794 791 789 791 749 734 731 736 740 751 738 740 747 754 764 760 760 745 746 752 758 756 777 751 754 756 760 776 743 787 750 735 733 733 737 746 759 759
826 822 818 818 813 801 797 796 793 790 802 723 725 717 721 737 730 738 733 742 755 751 752 758 751 749 757 756 749 765 744 750 752 762 763 758 768 747 724 743 744 749 758 766 766
824 821 817 816 813 804 800 796 794 802 793 736 723 732 732 731 735 724 736 735 739 748 740 743 725 732 741 739 744 742 751 757 754 763 789 766 766 755 742 738 746 756 763 770 772
821 818 816 816 804 801 801 796 802 796 728 734 732 727 732 736 738 733 744 748 758 772 765 745 741 725 727 747 742 749 764 797 800 793 792 750 762 749 728 732 744 758 765 769 774
817 812 806 804 802 803 801 800 806 757 748 721 721 722 736 728 734 735 738 751 742 745 753 764 767 737 726 745 752 752 760 785 804 789 773 741 761 744 725 729 738 749 758 766 773
814 807 801 797 798 801 801 799 776 761 738 731 726 739 730 723 725 733 731 740 733 736 755 755 751 717 722 725 736 749 766 747 768 755 769 758 748 739 738 744 746 755 760 762 769
817 806 791 789 792 797 797 786 763 749 737 737 751 734 739 724 727 726 732 721 729 720 724 736 756 718 713 716 726 733 730 767 762 795 799 759 756 760 750 754 752 760 762 763 770
817 796 781 784 792 792 787 774 765 752 747 748 750 747 735 727 714 719 721 714 709 717 714 728 740 736 715 729 741 744 750 744 746 755 784 786 769 737 743 744 748 749 756 766 771
812 796 783 787 792 779 776 769 763 752 740 740 738 740 743 734 726 713 714 707 692 701 720 716 732 751 735 709 710 722 735 741 763 772 756 761 769 723 728 729 734 739 744 757 766
807 789 782 786 787 775 765 758 751 752 745 742 737 738 738 740 743 718 706 687 686 696 711 711 734 758 753 727 715 732 728 727 738 747 764 777 765 722 724 726 727 734 739 753 762
811 787 773 778 776 776 772 761 751 737 738 735 734 729 735 740 729 730 718 695 685 690 702 706 723 740 757 739 722 737 731 723 733 760 760 758 750 736 738 740 745 732 734 751 764
810 788 774 774 768 765 767 764 758 747 729 729 733 730 734 744 737 729 716 706 690 699 700 711 732 726 728 725 721 724 729 727 734 734 753 745 746 742 744 757 759 778 739 752 765
810 792 782 781 773 771 769 764 755 749 741 732 732 728 728 732 727 729 716 710 709 699 704 706 730 727 734 723 721 724 715 719 722 724 728 732 737 720 735 741 755 754 740 752 763
809 803 800 788 778 771 763 756 752 749 736 729 723 726 729 718 713 708 703 701 705 710 708 710 719 731 742 726 726 734 714 709 714 709 715 735 743 740 741 745 740 743 743 750 758